DW4480 Weather Reports


Display with metric or nautical units.
time (UTC)temp
F
wind
direction
speed
MPH
gust
MPH
rain 1hr
in
rain 24hr
in
rain mn
in
humidity
%
barometer
mb
20200328123044 47 13 16.0 26.0 0.00 0.00 0.00 72 1024.7
20200328121525 48 23 12.0 24.0 0.00 0.00 0.00 72 1024.8
20200328120115 47 19 14.0 23.0 0.00 0.00 0.00 73 1025.0
20200328114523 48 335 7.0 19.0 0.00 0.00 0.00 75 1024.8
20200328113037 47 20 15.0 21.0 0.00 0.00 0.00 75 1025.0
20200328111551 47 355 10.0 21.0 0.00 0.00 0.00 74 1025.0
20200328110056 47 15 16.0 22.0 0.00 0.00 0.00 74 1025.0
20200328104520 47 344 14.0 24.0 0.00 0.00 0.00 74 1024.9
20200328103032 47 360 14.0 21.0 0.00 0.00 0.00 74 1025.0
20200328101519 47 13 10.0 23.0 0.00 0.00 0.00 76 1025.0
20200328100035 46 339 13.0 21.0 0.00 0.00 0.00 77 1025.0
20200328094552 47 355 13.0 21.0 0.00 0.00 0.00 78 1025.1
20200328090124 46 24 7.0 19.0 0.00 0.00 0.00 78 1025.0
20200328084711 45 351 12.0 18.0 0.00 0.00 0.00 79 1024.8
20200328083056 45 5 6.0 18.0 0.00 0.00 0.00 81 1024.7
20200328081649 45 355 5.0 18.0 0.00 0.00 0.00 81 1024.6
20200328080221 44 5 11.0 20.0 0.00 0.00 0.00 82 1024.7
20200328074715 44 5 5.0 17.0 0.00 0.00 0.00 84 1024.5
20200328073136 43 17 7.0 14.0 0.00 0.00 0.00 84 1024.3
20200328071636 43 5 4.0 13.0 0.00 0.00 0.00 86 1024.3
20200328070135 42 28 5.0 12.0 0.00 0.00 0.00 87 1024.2
20200328064539 41 355 6.0 12.0 0.00 0.00 0.00 88 1024.1
20200328063031 41 17 3.0 8.0 0.00 0.00 0.00 89 1024.0
20200328061513 40 12 0.0 4.0 0.00 0.00 0.00 90 1023.8
20200328060033 39 12 2.0 9.0 0.00 0.00 0.00 90 1023.7
20200328054510 39 31 1.0 8.0 0.00 0.00 0.00 90 1023.7
20200328053004 38 5 2.0 8.0 0.00 0.00 0.00 89 1023.5
20200328051502 38 16 1.0 8.0 0.00 0.00 0.00 87 1023.4
20200328050145 39 360 1.0 8.0 0.00 0.00 0.00 86 1023.3
20200328044653 39 13 0.0 9.0 0.00 0.00 0.00 86 1023.2
20200328043123 39 32 0.0 3.0 0.00 0.00 0.00 86 1023.1
20200328041613 39 355 0.0 2.0 0.00 0.00 0.00 85 1023.1
20200328040218 40 17 0.0 11.0 0.00 0.00 0.00 85 1023.1
20200328034607 40 39 0.0 3.0 0.00 0.00 0.00 83 1023.1
20200328033121 40 47 0.0 2.0 0.00 0.00 0.00 83 1023.0
20200328031641 40 30 0.0 4.0 0.00 0.00 0.00 82 1022.9
20200328030056 40 47 0.0 3.0 0.00 0.00 0.00 82 1022.9
20200328024649 40 34 0.0 2.0 0.00 0.00 0.00 81 1023.0
20200328023045 40 37 0.0 3.0 0.00 0.00 0.00 80 1023.1
20200328021640 40 52 1.0 3.0 0.00 0.00 0.00 79 1023.0
20200328020039 40 38 0.0 2.0 0.00 0.00 0.00 78 1023.0
20200328014604 40 42 1.0 4.0 0.00 0.00 0.00 78 1022.9
20200328013129 40 41 0.0 5.0 0.00 0.00 0.00 77 1022.9
20200328011542 40 40 0.0 3.0 0.00 0.00 0.00 77 1022.8
20200328010154 41 51 0.0 3.0 0.00 0.00 0.00 77 1022.8
20200328004618 41 31 0.0 3.0 0.00 0.00 0.00 77 1022.7
20200328003039 41 38 0.0 3.0 0.00 0.00 0.00 77 1022.7
20200328001526 41 40 0.0 4.0 0.00 0.00 0.00 78 1022.7
20200328000052 41 36 0.0 3.0 0.00 0.00 0.00 79 1022.7
20200327234537 41 35 0.0 2.0 0.00 0.00 0.00 79 1022.7
20200327233021 41 32 0.0 2.0 0.00 0.00 0.00 79 1022.8
20200327230049 42 30 0.0 5.0 0.00 0.00 0.00 76 1022.6
20200327224523 42 37 0.0 2.0 0.00 0.00 0.00 75 1022.7
20200327223101 43 57 0.0 2.0 0.00 0.00 0.00 75 1022.7
20200327221550 43 24 0.0 3.0 0.00 0.00 0.00 75 1022.6
20200327220053 44 37 0.0 3.0 0.00 0.00 0.00 74 1022.8
20200327214605 44 36 0.0 3.0 0.00 0.00 0.00 74 1022.7
20200327213030 44 44 1.0 4.0 0.00 0.00 0.00 74 1022.5
20200327211543 44 48 1.0 4.0 0.00 0.00 0.00 73 1022.4
20200327210110 45 13 1.0 4.0 0.00 0.00 0.00 73 1022.3
20200327204514 45 18 1.0 4.0 0.00 0.00 0.00 73 1022.3
20200327203032 45 16 2.0 5.0 0.00 0.00 0.00 72 1022.1
20200327201519 46 34 1.0 4.0 0.00 0.00 0.00 72 1022.0
20200327200011 46 66 2.0 5.0 0.00 0.00 0.00 72 1021.9
20200327194516 45 41 2.0 6.0 0.00 0.00 0.00 73 1021.9
20200327193004 45 36 1.0 4.0 0.00 0.00 0.00 72 1021.9
20200327191514 45 19 1.0 4.0 0.00 0.00 0.00 72 1021.8
20200327190007 46 32 1.0 9.0 0.00 0.00 0.00 71 1021.6
20200327184507 46 17 1.0 5.0 0.00 0.00 0.00 71 1021.4
20200327183010 46 338 1.0 8.0 0.00 0.00 0.00 70 1021.4
20200327181502 47 32 0.0 3.0 0.00 0.00 0.00 69 1021.2
20200327180002 47 22 1.0 4.0 0.00 0.00 0.00 67 1021.0
20200327174626 48 30 1.0 6.0 0.00 0.00 0.00 67 1021.0
20200327173138 49 26 1.0 5.0 0.00 0.00 0.00 66 1020.9
20200327170153 51 57 4.0 16.0 0.00 0.00 0.00 62 1020.7
20200327164607 52 14 2.0 6.0 0.00 0.00 0.00 62 1020.5
20200327163257 52 5 2.0 6.0 0.00 0.00 0.00 60 1020.5
20200327161623 53 28 2.0 12.0 0.00 0.00 0.00 60 1020.5
20200327160129 53 36 2.0 10.0 0.00 0.00 0.00 59 1020.4
20200327154710 54 51 3.0 9.0 0.00 0.00 0.00 58 1020.4
20200327153112 54 46 3.0 7.0 0.00 0.00 0.00 58 1020.4
20200327151633 54 47 2.0 13.0 0.00 0.00 0.00 58 1020.5
20200327150127 54 27 2.0 9.0 0.00 0.00 0.00 58 1020.5
20200327144705 55 33 5.0 14.0 0.00 0.00 0.00 58 1020.6
20200327143126 54 38 2.0 25.0 0.00 0.00 0.00 60 1020.7
20200327141717 55 14 8.0 17.0 0.00 0.00 0.00 59 1020.7
20200327134605 57 28 2.0 9.0 0.00 0.00 0.00 50 1020.9
20200327133134 57 5 3.0 9.0 0.00 0.00 0.00 44 1021.0
20200327131554 57 61 1.0 10.0 0.00 0.00 0.00 44 1021.2
20200327130056 56 51 2.0 9.0 0.00 0.00 0.00 46 1021.2
20200327124553 56 10 3.0 9.0 0.00 0.00 0.00 45 1021.3